"2005/01/01", 5.9, 6.3, 5.2
"2005/01/02", 5.3, 6.0, 4.3
"2005/01/03", 6.0, 6.5, 5.7
"2005/01/04", 6.3, 6.8, 5.8
"2005/01/05", 6.0, 6.3, 5.6
"2005/01/06", 5.6, 5.8, 5.2
"2005/01/07", 5.8, 6.3, 5.1
"2005/01/08", 5.6, 6.1, 5.0
"2005/01/09", 5.3, 5.7, 4.8
"2005/01/10", 4.7, 5.1, 3.9
"2005/01/11", 4.9, 5.3, 4.5
"2005/01/12", 4.6, 5.0, 4.2
"2005/01/13", 4.5, 5.0, 3.8
"2005/01/14", 4.5, 5.1, 3.8
"2005/01/15", 4.8, 5.0, 4.7
"2005/01/16", 5.3, 5.7, 4.9
"2005/01/17", 5.4, 5.7, 5.0
"2005/01/18", 5.5, 6.0, 4.9
"2005/01/19", 5.6, 6.0, 5.4
"2005/01/20", 5.8, 6.6, 5.3
"2005/01/21", 5.4, 6.0, 5.0
"2005/01/22", 5.0, 5.4, 4.4
"2005/01/23", 4.4, 4.7, 4.2
"2005/01/24", 4.6, 5.0, 4.0
"2005/01/25", 5.0, 5.8, 4.5
"2005/01/26", 5.1, 5.2, 4.9
"2005/01/27", 4.9, 5.8, 4.1
"2005/01/28", 5.1, 5.4, 4.9
"2005/01/29", 5.2, 5.6, 4.8
"2005/01/30", 5.6, 6.3, 5.2
"2005/01/31", 5.5, 6.3, 5.1
"2005/02/01", 5.2, 5.8, 4.8
"2005/02/02", 5.1, 5.6, 4.7
"2005/02/03", 4.5, 5.1, 3.8
"2005/02/04", 4.7, 5.7, 4.2
"2005/02/05", 4.6, 5.3, 4.0
"2005/02/06", 4.7, 5.3, 3.7
"2005/02/07", 4.9, 5.6, 4.2
"2005/02/08", 4.9, 5.1, 4.8
"2005/02/09", 4.9, 5.5, 4.3
"2005/02/10", 5.5, 6.3, 5.2
"2005/02/11", 5.7, 6.6, 5.2
"2005/02/12", 5.6, 6.0, 5.1
"2005/02/13", 5.5, 5.9, 5.3
"2005/02/14", 5.7, 6.5, 5.1
"2005/02/15", 6.0, 6.5, 5.5
"2005/02/16", 5.6, 6.0, 5.2
"2005/02/17", 5.6, 6.8, 5.0
"2005/02/18", 5.7, 6.4, 5.4
"2005/02/19", 5.5, 5.5, 5.4
"2005/02/20", 5.7, 6.1, 5.4
"2005/02/21", 6.1, 6.8, 5.5
"2005/02/22", 6.3, 6.7, 6.0
"2005/02/23", 6.6, 8.0, 5.9
"2005/02/24", 6.6, 6.9, 6.2
"2005/02/25", 5.8, 6.2, 5.7
"2005/02/26", 5.8, 6.4, 5.1
"2005/02/27", 5.7, 6.2, 4.5
"2005/02/28", 6.2, 7.2, 5.5
"2005/03/01", 6.4, 7.2, 5.9
"2005/03/02", 6.3, 7.3, 5.5
"2005/03/03", 6.4, 7.4, 5.5
"2005/03/04"," *"," *"," *"
"2005/03/05"," *"," *"," *"
"2005/03/06"," *"," *"," *"
"2005/03/07"," *"," *"," *"
"2005/03/08"," *"," *"," *"
"2005/03/09", 6.9, 7.8, 6.2
"2005/03/10", 7.3, 7.7, 7.2
"2005/03/11", 7.3, 7.5, 7.2
"2005/03/12", 7.6, 8.0, 7.2
"2005/03/13", 7.6, 8.0, 7.2
"2005/03/14", 7.7, 8.7, 7.2
"2005/03/15", 7.7, 8.5, 7.3
"2005/03/16", 8.6,10.9, 7.5
"2005/03/17", 8.7,10.3, 8.1
"2005/03/18", 9.2,10.5, 8.8
"2005/03/19", 8.7, 9.6, 7.1
"2005/03/20", 8.8, 9.2, 8.6
"2005/03/21", 9.1,10.4, 8.3
"2005/03/22", 9.5,10.0, 8.9
"2005/03/23", 9.5, 9.9, 9.1
"2005/03/24", 9.3, 9.9, 8.9
"2005/03/25", 9.1, 9.8, 8.6
"2005/03/26", 8.9, 9.9, 8.4
"2005/03/27", 9.3,10.4, 8.4
"2005/03/28", 9.3, 9.6, 9.1
"2005/03/29", 9.4,10.0, 9.1
"2005/03/30", 9.7,10.5, 8.6
"2005/03/31",10.3,11.3, 9.3
"2005/04/01",10.6,11.6, 9.9
"2005/04/02",10.6,10.8,10.2
"2005/04/03",11.3,12.9,10.2
"2005/04/04",10.7,11.4,10.4
"2005/04/05",11.1,13.1, 9.8
"2005/04/06",10.9,12.4,10.4
"2005/04/07",12.1,14.2,10.6
"2005/04/08",13.3,14.7,12.2
"2005/04/09",13.1,14.0,12.7
"2005/04/10",14.1,16.2,13.0
"2005/04/11",14.2,16.2,13.4
"2005/04/12",12.6,13.3,11.9
"2005/04/13",12.0,12.4,10.6
"2005/04/14",12.6,14.2,11.7
"2005/04/15",13.4,14.4,12.8
"2005/04/16",13.8,14.1,13.5
"2005/04/17",13.7,14.5,12.9
"2005/04/18",13.8,14.5,13.3
"2005/04/19",14.2,15.6,13.1
"2005/04/20",13.9,14.1,13.8
"2005/04/21",14.3,15.2,13.7
"2005/04/22",14.6,15.9,14.1
"2005/04/23",14.8,15.6,14.0
"2005/04/24",14.9,15.7,14.1
"2005/04/25",14.7,15.4,13.8
"2005/04/26",15.2,16.5,14.8
"2005/04/27",15.5,16.9,14.6
"2005/04/28",16.5,18.2,15.3
"2005/04/29",16.6,17.5,15.8
"2005/04/30",17.2,18.1,16.3
"2005/05/01",17.5,18.4,16.9
"2005/05/02",18.2,19.1,17.8
"2005/05/03",17.8,19.0,16.9
"2005/05/04",18.1,18.8,17.4
"2005/05/05",18.4,19.1,17.9
"2005/05/06",17.6,18.3,16.8
"2005/05/07",16.3,17.7,14.8
"2005/05/08",16.8,17.5,16.5
"2005/05/09",17.1,18.4,16.1
"2005/05/10",17.5,18.4,16.9
"2005/05/11",16.6,17.2,16.2
"2005/05/12",15.9,16.2,15.7
"2005/05/13",15.5,16.0,14.9
"2005/05/14",15.2,16.1,14.4
"2005/05/15",15.1,15.6,14.9
"2005/05/16",15.3,16.3,14.5
"2005/05/17",15.7,16.7,15.0
"2005/05/18",16.5,17.5,15.7
"2005/05/19",17.2,18.0,16.6
"2005/05/20",17.4,17.9,16.9
"2005/05/21",18.0,20.0,17.0
"2005/05/22",18.0,18.9,17.6
"2005/05/23",19.0,20.4,18.4
"2005/05/24",18.5,19.5,18.1
"2005/05/25",18.8,20.0,17.9
"2005/05/26",19.1,21.4,18.1
"2005/05/27",19.4,20.8,18.6
"2005/05/28",20.0,22.0,18.8
"2005/05/29",19.4,19.7,19.1
"2005/05/30",19.1,19.4,18.9
"2005/05/31",19.1,19.6,18.6
"2005/06/01",19.5,22.3,18.8
"2005/06/02",19.0,19.7,18.6
"2005/06/03",19.0,20.2,18.4
"2005/06/04",19.2,19.9,18.7
"2005/06/05",19.9,22.1,19.0
"2005/06/06",20.7,22.6,19.8
"2005/06/07",20.8,21.7,20.1
"2005/06/08",21.2,22.3,20.2
"2005/06/09",21.6,22.3,20.9
"2005/06/10",21.5,21.9,21.3
"2005/06/11",21.8,22.7,21.2
"2005/06/12",22.7,24.2,21.7
"2005/06/13",22.7,23.0,22.5
"2005/06/14",22.4,23.0,21.9
"2005/06/15",21.8,22.3,21.1
"2005/06/16",21.1,21.4,20.9
"2005/06/17",21.6,23.6,20.0
"2005/06/18",21.6,22.4,21.1
"2005/06/19",22.1,23.2,21.7
"2005/06/20",22.8,25.6,21.9
"2005/06/21",23.1,24.1,22.3
"2005/06/22",22.8,23.5,22.4
"2005/06/23",22.9,24.0,22.4
"2005/06/24",23.7,26.6,22.6
"2005/06/25",23.0,23.9,22.8
"2005/06/26",23.4,24.3,23.0
"2005/06/27",23.6,26.0,23.3
"2005/06/28",24.8,26.3,23.4
"2005/06/29",24.9,25.4,24.5
"2005/06/30",24.7,25.6,24.3
"2005/07/01",24.9,25.1,24.7
"2005/07/02",25.1,26.5,24.6
"2005/07/03",24.3,24.7,23.7
"2005/07/04",23.5,23.8,22.8
"2005/07/05",23.7,25.1,22.6
"2005/07/06",23.5,23.8,23.2
"2005/07/07",23.4,24.2,23.0
"2005/07/08",23.5,24.0,23.0
"2005/07/09",23.5,24.0,23.1
"2005/07/10",23.3,23.5,23.2
"2005/07/11",25.1,27.6,23.3
"2005/07/12",24.3,25.3,23.3
"2005/07/13",23.4,24.2,22.9
"2005/07/14",23.3,23.5,23.2
"2005/07/15",24.4,26.5,23.0
"2005/07/16",24.9,25.9,24.3
"2005/07/17",24.7,26.2,24.1
"2005/07/18",24.7,28.5,24.1
"2005/07/19",25.3,26.8,24.1
"2005/07/20",25.8,27.1,25.0
"2005/07/21",25.3,25.8,25.0
"2005/07/22",25.1,25.3,24.9
"2005/07/23",25.0,25.8,24.5
"2005/07/24",25.0,25.7,24.4
"2005/07/25",25.2,25.7,24.8
"2005/07/26",25.1,25.3,24.8
"2005/07/27",25.7,26.8,24.8
"2005/07/28",26.4,28.2,25.9
"2005/07/29",27.1,29.0,26.2
"2005/07/30",27.1,28.5,26.2
"2005/07/31",27.5,29.1,27.0
"2005/08/01",27.7,29.0,26.8
"2005/08/02",27.7,28.2,27.2
"2005/08/03",27.6,28.1,27.2
"2005/08/04",28.2,30.2,27.4
"2005/08/05",28.9,31.0,28.0
"2005/08/06",29.5,31.5,28.3
"2005/08/07",28.8,29.2,28.5
"2005/08/08",29.0,30.9,28.3
"2005/08/09",29.3,31.3,27.9
"2005/08/10",28.7,29.3,28.5
"2005/08/11",28.7,29.7,27.3
"2005/08/12",28.6,28.9,28.3
"2005/08/13",28.1,28.4,27.8
"2005/08/14",28.6,31.1,27.3
"2005/08/15",29.0,30.9,28.4
"2005/08/16",28.8,29.2,28.5
"2005/08/17",28.5,29.5,27.1
"2005/08/18",28.7,29.8,27.7
"2005/08/19",28.8,29.4,28.3
"2005/08/20",29.1,29.7,28.8
"2005/08/21",29.0,29.7,28.5
"2005/08/22",28.4,28.7,28.1
"2005/08/23",27.8,28.3,27.5
"2005/08/24",27.3,27.7,26.9
"2005/08/25",26.7,26.9,26.6
"2005/08/26",26.4,26.8,25.7
"2005/08/27",26.8,27.2,26.5
"2005/08/28",26.3,26.6,26.0
"2005/08/29",26.5,28.9,24.9
"2005/08/30",27.0,28.1,26.3
"2005/08/31",26.9,28.0,26.5
"2005/09/01",27.0,28.3,26.1
"2005/09/02",27.2,29.4,26.3
"2005/09/03",27.1,27.7,26.7
"2005/09/04",27.1,27.5,26.6
"2005/09/05",26.3,26.6,25.9
"2005/09/06",25.7,25.9,25.6
"2005/09/07",26.0,26.5,25.7
"2005/09/08",26.5,28.2,25.7
"2005/09/09",26.3,27.2,26.0
"2005/09/10",26.6,28.1,25.4
"2005/09/11",26.9,28.6,26.2
"2005/09/12",27.2,29.6,26.6
"2005/09/13",27.4,28.9,26.5
"2005/09/14",27.6,28.6,26.8
"2005/09/15",26.4,27.4,25.7
"2005/09/16",25.5,26.1,24.7
"2005/09/17",25.6,27.0,24.2
"2005/09/18",25.8,27.1,24.9
"2005/09/19",26.4,28.1,25.5
"2005/09/20",25.9,26.1,25.5
"2005/09/21",25.3,25.6,24.9
"2005/09/22",24.7,25.0,24.5
"2005/09/23",25.1,26.1,24.2
"2005/09/24",24.9,25.5,24.1
"2005/09/25",23.1,24.1,22.2
"2005/09/26",22.1,22.5,21.7
"2005/09/27",21.9,22.1,21.5
"2005/09/28",21.3,21.5,21.0
"2005/09/29",20.8,21.2,20.5
"2005/09/30",21.1,22.0,20.4
"2005/10/01",21.1,21.5,20.8
"2005/10/02",21.2,21.9,20.8
"2005/10/03",21.6,22.1,21.3
"2005/10/04",21.4,21.5,21.0
"2005/10/05",21.2,21.2,21.0
"2005/10/06",21.0,21.3,20.7
"2005/10/07",21.0,21.3,20.6
"2005/10/08",21.2,21.4,21.0
"2005/10/09",20.9,21.4,20.5
"2005/10/10",20.5,20.7,20.3
"2005/10/11",20.0,20.3,19.8
"2005/10/12",19.9,20.2,19.6
"2005/10/13",19.9,20.5,19.4
"2005/10/14",20.5,22.1,19.5
"2005/10/15",20.9,21.5,20.4
"2005/10/16",20.4,20.7,20.0
"2005/10/17",19.8,20.0,19.5
"2005/10/18",19.3,19.6,18.8
"2005/10/19",18.8,19.1,18.5
"2005/10/20",18.6,18.9,18.1
"2005/10/21",18.6,19.0,18.2
"2005/10/22",18.4,18.6,18.3
"2005/10/23",18.2,18.7,17.9
"2005/10/24",18.1,19.2,17.2
"2005/10/25",18.4,19.3,17.7
"2005/10/26",18.1,18.7,17.7
"2005/10/27",17.4,17.7,17.3
"2005/10/28"," *"," *"," *"
"2005/10/29",17.5,17.8,17.3
"2005/10/30",17.6,17.8,17.3
"2005/10/31",16.8,17.3,16.5
"2005/11/01",16.3,17.0,15.6
"2005/11/02",16.4,17.6,15.4
"2005/11/03",16.8,17.6,16.2
"2005/11/04",17.0,17.9,16.5
"2005/11/05",16.8,17.8,16.3
"2005/11/06",16.4,16.7,16.3
"2005/11/07",16.8,17.7,16.3
"2005/11/08",16.5,17.0,15.9
"2005/11/09",15.9,16.2,15.4
"2005/11/10",15.7,16.3,14.5
"2005/11/11",15.3,15.6,14.8
"2005/11/12",15.1,15.6,14.8
"2005/11/13",14.8,15.1,14.6
"2005/11/14",14.5,14.7,14.0
"2005/11/15",13.8,14.3,13.5
"2005/11/16",13.5,14.4,12.4
"2005/11/17",13.2,13.9,12.3
"2005/11/18",12.8,13.8,11.7
"2005/11/19",12.5,12.9,12.2
"2005/11/20",12.1,13.5,10.9
"2005/11/21",11.8,12.2,11.5
"2005/11/22",11.7,12.3,11.3
"2005/11/23",11.6,11.8,11.3
"2005/11/24",11.8,12.9,11.2
"2005/11/25",11.6,11.8,11.4
"2005/11/26",11.6,12.5,11.0
"2005/11/27",11.8,12.7,11.4
"2005/11/28",11.8,12.5,11.3
"2005/11/29",11.9,12.3,11.6
"2005/11/30",11.1,11.6,10.6
"2005/12/01",10.6,11.8, 9.1
"2005/12/02",10.4,10.8,10.2
"2005/12/03",10.0,10.4, 8.9
"2005/12/04", 9.5, 9.8, 9.1
"2005/12/05", 9.3, 9.9, 8.8
"2005/12/06", 8.5, 8.9, 8.3
"2005/12/07", 8.4, 8.6, 8.1
"2005/12/08", 8.6, 9.0, 8.2
"2005/12/09", 8.5, 8.8, 8.0
"2005/12/10", 8.5, 8.9, 8.1
"2005/12/11", 7.9, 8.3, 7.5
"2005/12/12", 7.4, 7.9, 6.5
"2005/12/13", 6.7, 7.3, 5.9
"2005/12/14", 6.9, 7.2, 6.4
"2005/12/15", 6.2, 6.9, 5.0
"2005/12/16", 6.3, 6.7, 5.8
"2005/12/17", 6.0, 6.4, 5.5
"2005/12/18", 5.6, 6.2, 4.9
"2005/12/19", 4.9, 5.5, 4.3
"2005/12/20", 4.9, 5.3, 4.1
"2005/12/21", 4.8, 5.2, 4.3
"2005/12/22", 4.7, 5.2, 4.2
"2005/12/23", 4.5, 5.2, 4.2
"2005/12/24", 4.2, 4.9, 3.6
"2005/12/25", 4.1, 4.4, 3.8
"2005/12/26", 3.6, 4.0, 3.3
"2005/12/27", 3.1, 3.5, 2.2
"2005/12/28", 2.9, 3.5, 2.2
"2005/12/29", 2.7, 3.3, 2.1
"2005/12/30", 3.1, 3.6, 2.6
"2005/12/31", 3.2, 4.1, 2.8
